• In United Kingdom
  • List of Countries
  • For 7 days
  • Water Temperature
  • Satellite Maps
  • Weather Map
  • Weather Widgets
  • user-avatar
    Login

    Hourly Weather Konstantyna

    Today, 22 July, Saturday

    Time Temperature Precipitation Wind Pressure Humidity
    00:00 +27°C° 0 mm 0 mps 709 mmHg 51%
    01:00 +27°C° 0 mm 0 mps 709 mmHg 51%
    02:00 +27°C° 0 mm 0 mps 709 mmHg 52%
    03:00 +27°C° 0 mm 0 mps 709 mmHg 52%
    04:00 +27°C° 0 mm 0 mps 710 mmHg 49%
    05:00 +30°C° 0 mm 1 mps 710 mmHg 45%
    06:00 +32°C° 0 mm 1 mps 711 mmHg 38%
    07:00 +34°C° 0 mm 2 mps 711 mmHg 34%
    08:00 +36°C° 0 mm 3 mps 711 mmHg 29%
    09:00 +38°C° 0 mm 3 mps 712 mmHg 25%
    10:00 +41°C° 0 mm 4 mps 712 mmHg 23%
    11:00 +42°C° 0 mm 5 mps 712 mmHg 21%
    12:00 +44°C° 0 mm 6 mps 712 mmHg 18%
    13:00 +43°C° 0 mm 5 mps 712 mmHg 18%
    14:00 +43°C° 0 mm 5 mps 712 mmHg 18%
    15:00 +43°C° 0 mm 5 mps 712 mmHg 18%
    16:00 +42°C° 0 mm 4 mps 712 mmHg 23%
    17:00 +40°C° 0 mm 4 mps 712 mmHg 28%
    18:00 +38°C° 0 mm 3 mps 711 mmHg 33%
    19:00 +37°C° 0 mm 3 mps 712 mmHg 34%
    20:00 +36°C° 0 mm 3 mps 712 mmHg 34%
    21:00 +35°C° 0 mm 4 mps 712 mmHg 35%
    22:00 +35°C° 0.1 mm 4 mps 713 mmHg 33%
    23:00 +35°C° 0.1 mm 4 mps 713 mmHg 30%

    Tomorrow, 23 July, Sunday

    Time Temperature Precipitation Wind Pressure Humidity
    00:00 +35°C° 0.1 mm 4 mps 713 mmHg 28%
    01:00 +35°C° 0 mm 3 mps 713 mmHg 27%
    02:00 +35°C° 0 mm 3 mps 713 mmHg 27%
    03:00 +34°C° 0 mm 3 mps 713 mmHg 27%
    04:00 +34°C° 0 mm 3 mps 713 mmHg 27%
    05:00 +34°C° 0 mm 4 mps 713 mmHg 27%
    06:00 +35°C° 0 mm 4 mps 713 mmHg 27%
    07:00 +37°C° 0 mm 4 mps 713 mmHg 23%
    08:00 +40°C° 0 mm 5 mps 714 mmHg 20%
    09:00 +42°C° 0 mm 6 mps 714 mmHg 17%
    10:00 +42°C° 0 mm 5 mps 714 mmHg 16%
    11:00 +43°C° 0 mm 5 mps 714 mmHg 16%
    12:00 +44°C° 0 mm 4 mps 714 mmHg 15%
    13:00 +43°C° 0 mm 4 mps 714 mmHg 16%
    14:00 +43°C° 0 mm 5 mps 714 mmHg 17%
    15:00 +43°C° 0 mm 5 mps 713 mmHg 18%
    16:00 +42°C° 0.1 mm 4 mps 713 mmHg 20%
    17:00 +40°C° 0.1 mm 3 mps 713 mmHg 21%
    18:00 +39°C° 0.1 mm 2 mps 713 mmHg 23%
    19:00 +38°C° 0 mm 2 mps 713 mmHg 24%
    20:00 +37°C° 0 mm 2 mps 713 mmHg 24%
    21:00 +36°C° 0 mm 2 mps 713 mmHg 25%
    22:00 +36°C° 0 mm 2 mps 713 mmHg 26%
    23:00 +35°C° 0 mm 2 mps 713 mmHg 27%

    Day after tomorrow, 24 July, Monday

    Time Temperature Precipitation Wind Pressure Humidity
    00:00 +35°C° 0 mm 3 mps 712 mmHg 28%
    01:00 +34°C° 0.1 mm 3 mps 712 mmHg 29%
    02:00 +34°C° 0.1 mm 3 mps 712 mmHg 30%
    03:00 +33°C° 0.1 mm 3 mps 711 mmHg 31%
    04:00 +32°C° 0 mm 2 mps 711 mmHg 34%
    05:00 +31°C° 0 mm 2 mps 711 mmHg 37%
    06:00 +31°C° 0 mm 2 mps 711 mmHg 39%
    07:00 +34°C° 0 mm 2 mps 712 mmHg 35%
    08:00 +35°C° 0 mm 3 mps 712 mmHg 32%
    09:00 +37°C° 0 mm 4 mps 712 mmHg 28%
    10:00 +39°C° 0 mm 5 mps 712 mmHg 28%
    11:00 +40°C° 0 mm 5 mps 711 mmHg 28%
    12:00 +40°C° 0 mm 6 mps 711 mmHg 28%
    13:00 +39°C° 0 mm 6 mps 711 mmHg 31%
    14:00 +39°C° 0 mm 5 mps 710 mmHg 34%
    15:00 +37°C° 0 mm 5 mps 710 mmHg 36%
    16:00 +35°C° 0 mm 5 mps 710 mmHg 43%
    17:00 +33°C° 0 mm 5 mps 710 mmHg 49%
    18:00 +30°C° 0 mm 5 mps 710 mmHg 55%
    19:00 +29°C° 0.3 mm 4 mps 710 mmHg 61%
    20:00 +27°C° 0.3 mm 3 mps 710 mmHg 66%
    21:00 +26°C° 0.3 mm 2 mps 710 mmHg 71%
    22:00 +26°C° 0 mm 2 mps 710 mmHg 74%
    23:00 +25°C° 0 mm 1 mps 710 mmHg 76%

    25 July, Tuesday

    Time Temperature Precipitation Wind Pressure Humidity
    00:00 +25°C° 0 mm 1 mps 710 mmHg 78%
    01:00 +24°C° 0 mm 1 mps 709 mmHg 80%
    02:00 +24°C° 0 mm 1 mps 709 mmHg 82%
    03:00 +23°C° 0 mm 1 mps 709 mmHg 84%
    04:00 +23°C° 0 mm 1 mps 709 mmHg 82%
    05:00 +23°C° 0 mm 1 mps 709 mmHg 80%
    06:00 +23°C° 0 mm 1 mps 709 mmHg 79%
    07:00 +25°C° 0 mm 1 mps 709 mmHg 68%
    08:00 +27°C° 0 mm 1 mps 709 mmHg 57%
    09:00 +28°C° 0 mm 1 mps 709 mmHg 47%
    10:00 +30°C° 0 mm 1 mps 709 mmHg 42%
    11:00 +31°C° 0 mm 2 mps 709 mmHg 37%
    12:00 +34°C° 0 mm 3 mps 709 mmHg 32%
    13:00 +34°C° 0 mm 3 mps 709 mmHg 32%
    14:00 +34°C° 0 mm 3 mps 709 mmHg 32%
    15:00 +35°C° 0 mm 4 mps 709 mmHg 32%
    16:00 +33°C° 0 mm 4 mps 708 mmHg 38%
    17:00 +32°C° 0 mm 4 mps 708 mmHg 45%
    18:00 +29°C° 0 mm 4 mps 708 mmHg 51%
    19:00 +28°C° 0 mm 4 mps 708 mmHg 57%
    20:00 +26°C° 0 mm 3 mps 708 mmHg 63%
    21:00 +25°C° 0 mm 2 mps 708 mmHg 69%
    22:00 +24°C° 0 mm 2 mps 708 mmHg 71%
    23:00 +24°C° 0 mm 1 mps 708 mmHg 73%

    26 July, Wednesday

    Time Temperature Precipitation Wind Pressure Humidity
    00:00 +23°C° 0 mm 1 mps 708 mmHg 75%
    01:00 +23°C° 0 mm 1 mps 707 mmHg 76%
    02:00 +23°C° 0 mm 1 mps 707 mmHg 77%
    03:00 +22°C° 0 mm 1 mps 707 mmHg 78%
    04:00 +22°C° 0 mm 1 mps 707 mmHg 78%
    05:00 +22°C° 0 mm 1 mps 707 mmHg 78%
    06:00 +22°C° 0 mm 1 mps 708 mmHg 78%
    07:00 +24°C° 0 mm 1 mps 708 mmHg 69%
    08:00 +25°C° 0 mm 1 mps 708 mmHg 61%
    09:00 +27°C° 0 mm 1 mps 708 mmHg 52%
    10:00 +28°C° 0 mm 2 mps 708 mmHg 47%
    11:00 +29°C° 0 mm 3 mps 708 mmHg 42%
    12:00 +31°C° 0 mm 3 mps 708 mmHg 36%
    13:00 +32°C° 0 mm 4 mps 708 mmHg 37%
    14:00 +32°C° 0 mm 4 mps 708 mmHg 38%
    15:00 +32°C° 0 mm 5 mps 708 mmHg 39%
    16:00 +29°C° 0 mm 5 mps 708 mmHg 44%
    17:00 +28°C° 0 mm 4 mps 708 mmHg 50%
    18:00 +27°C° 0 mm 4 mps 708 mmHg 56%
    19:00 +25°C° 0 mm 4 mps 708 mmHg 60%
    20:00 +24°C° 0 mm 3 mps 709 mmHg 65%
    21:00 +23°C° 0 mm 2 mps 709 mmHg 70%
    22:00 +23°C° 0 mm 2 mps 709 mmHg 72%
    23:00 +21°C° 0 mm 2 mps 709 mmHg 74%

    27 July, Thursday

    Time Temperature Precipitation Wind Pressure Humidity
    00:00 +21°C° 0 mm 2 mps 709 mmHg 76%
    01:00 +21°C° 0 mm 1 mps 709 mmHg 77%
    02:00 +21°C° 0 mm 1 mps 709 mmHg 78%
    03:00 +21°C° 0 mm 1 mps 708 mmHg 80%
    04:00 +21°C° 0 mm 1 mps 709 mmHg 77%
    05:00 +21°C° 0 mm 1 mps 709 mmHg 75%
    06:00 +21°C° 0 mm 1 mps 709 mmHg 73%
    07:00 +23°C° 0 mm 1 mps 710 mmHg 61%
    08:00 +24°C° 0 mm 2 mps 710 mmHg 49%
    09:00 +26°C° 0 mm 2 mps 711 mmHg 37%
    10:00 +27°C° 0 mm 3 mps 711 mmHg 34%
    11:00 +28°C° 0 mm 3 mps 711 mmHg 32%
    12:00 +30°C° 0 mm 4 mps 711 mmHg 29%
    13:00 +30°C° 0 mm 4 mps 711 mmHg 30%
    14:00 +30°C° 0 mm 5 mps 710 mmHg 32%
    15:00 +30°C° 0 mm 5 mps 710 mmHg 33%
    16:00 +28°C° 0 mm 5 mps 710 mmHg 38%
    17:00 +27°C° 0 mm 5 mps 710 mmHg 42%
    18:00 +26°C° 0 mm 4 mps 710 mmHg 46%
    19:00 +25°C° 0 mm 3 mps 711 mmHg 51%
    20:00 +24°C° 0 mm 2 mps 711 mmHg 56%
    21:00 +23°C° 0 mm 2 mps 711 mmHg 60%
    22:00 +22°C° 0 mm 1 mps 711 mmHg 61%
    23:00 +22°C° 0 mm 1 mps 711 mmHg 63%
    Show more